Flag for India Weather past 2 weeks in Lucknow, Uttar Pradesh, India

Now
93 °F

Broken clouds.


Feels Like: 113 °F
Forecast: 81 / 93 °F
Wind: 2 mph from North

Location: Lucknow / Amausi

Current Time: Aug 1, 2015 at 5:37:33 PM

Latest Report: Aug 1, 2015 at 5:00 PM


Visibility: 3 mi

Pressure: 29.59 "Hg

Humidity: 67%

Dew point: 81 °F

Location of LucknowLocation

Historic Weather in Lucknow — Graph

°F

Lucknow temperature yesterday

Maximum temperature yesterday: 91 °F (at 12:30 PM)
Minimum temperature yesterday: 82 °F (at 5:00 AM)
Average temperature yesterday: 87 °F

Past Weeks' High & Low Weather Summary

 TemperatureHumidityPressure
High97 °F (Jul 28, 5:30 PM)100% (Jul 24, 6:30 PM)29.68 "Hg (Jul 24, 6:30 PM)
Low79 °F (Jul 24, 3:30 PM)53% (Jul 28, 5:30 PM)29.39 "Hg (Jul 17, 3:30 PM)
Average88 °F78%29.54 "Hg
* Reported Jul 17 3:30 PM — Aug 1 4:00 PM, Lucknow, Weather by CustomWeather, © 2015

Note: Actual official high and low records may vary slightly from our data, if they occured in-between our weather recording intervals... More about our weather records

Advertising

Lucknow weather history for previous 24 hours

 ConditionsComfort  
Time TempWeatherWind HumidityBarometerVisibility
4:00 PM
Sat, Aug 1
93 °FBroken clouds.5 mph67%29.59 "Hg3 mi
3:30 PM93 °FBroken clouds.6 mph63%29.62 "Hg3 mi
3:00 PM93 °FBroken clouds.3 mph59%29.62 "Hg3 mi
2:30 PM93 °FBroken clouds.6 mph67%29.62 "Hg3 mi
2:00 PM93 °FBroken clouds.2 mph71%29.62 "Hg3 mi
1:30 PM91 °FBroken clouds.2 mph71%29.65 "Hg3 mi
1:00 PM90 °FBroken clouds.2 mph75%29.65 "Hg3 mi
12:30 PM90 °FBroken clouds.3 mph75%29.68 "Hg3 mi
12:00 PM86 °FBroken clouds.2 mph84%29.68 "Hg3 mi
11:00 AM82 °FMore clouds than sun.2 mph89%29.68 "Hg3 mi
10:30 AM82 °FMore clouds than sun.2 mph89%29.68 "Hg2 mi
10:00 AM81 °FDrizzle. More clouds than sun.2 mph94%29.68 "Hg2 mi
9:30 AM81 °FDrizzle. More clouds than sun.2 mph89%29.68 "Hg2 mi
9:00 AM79 °FDrizzle. More clouds than sun.2 mph94%29.68 "Hg2 mi
8:30 AM79 °FDrizzle. More clouds than sun.2 mph94%29.68 "Hg2 mi
7:30 AM79 °FDrizzle. More clouds than sun.2 mph94%29.65 "Hg1 mi
7:00 AM79 °FDrizzle. More clouds than sun.2 mph94%29.65 "Hg1 mi
6:30 AM79 °FLight rain. More clouds than sun.2 mph94%29.65 "Hg1 mi
6:00 AM79 °FLight rain. More clouds than sun.2 mph94%29.62 "Hg1 mi
5:30 AM79 °FLight rain. Mostly cloudy.2 mph94%29.59 "Hg1 mi
5:00 AM81 °FPartly cloudy.2 mph89%29.59 "Hg1 mi
4:00 AM81 °FPartly cloudy.5 mph89%29.59 "Hg1 mi
3:00 AM81 °FThundershowers. Partly cloudy.5 mph89%29.59 "Hg1 mi
12:00 AM84 °FPartly cloudy.No wind94%29.59 "Hg1 mi
11:00 PM
Fri, Jul 31
82 °FPartly cloudy.No wind94%29.62 "Hg1 mi
10:00 PM84 °FPartly cloudy.No wind89%29.59 "Hg1 mi
8:30 PM86 °FPartly cloudy.2 mph84%29.56 "Hg2 mi
8:00 PM88 °FPartly cloudy.2 mph79%29.56 "Hg2 mi
7:30 PM88 °FPartly cloudy.2 mph79%29.53 "Hg2 mi
7:00 PM88 °FBroken clouds.2 mph79%29.53 "Hg2 mi
6:30 PM90 °FBroken clouds.No wind75%29.53 "Hg2 mi
6:00 PM90 °FBroken clouds.No wind75%29.53 "Hg2 mi
5:30 PM90 °FBroken clouds.No wind75%29.50 "Hg2 mi
Weather by CustomWeather, © 2015

See weather overviewHow to use our weather pages